Tracking 23728 objects as of 23-Sep-2021
HD Live streaming from Space Station
objects crossing your sky now

STARLINK-1848

Track STARLINK-1848 now!
10-day predictions
STARLINK-1848 is classified as:


NORAD ID: 46740
Int'l Code: 2020-074B
Perigee: 553.3 km
Apogee: 555.4 km
Inclination: 53.1 °
Period: 95.6 minutes
Semi major axis: 6925 km
RCS: Unknown
Launch date: October 24, 2020
Source: United States (US)
Launch site: AIR FORCE EASTERN TEST RANGE (AFETR)
aabbcc
Your satellite tracking list
Your tracking list is empty




NASA's NSSDC Master Catalog

Two Line Element Set (TLE):
1 46740U 20074B   21265.76858203 -.00000494  00000-0 -14246-4 0  9999
2 46740  53.0565  79.1276 0001507 100.1114 260.0045 15.06398969 51087
Source of the keplerian elements: AFSPC